Lone Rock, WI

10:05 PM CDT on April 27, 2017 (GMT -0500)
Tri-County Regional

Weather History for KLNR - October, 2012

Change the Weather History Date:

Monday, October 8, 2012

  Actual Average Record
Temperature  
Mean Temperature 45 °F -  
Max Temperature 63 °F 62 °F 82 °F (2011)
Min Temperature 27 °F 39 °F 27 °F (2012)
Degree Days  
Heating Degree Days 20    
Moisture  
Dew Point 27 °F    
Average Humidity 47    
Maximum Humidity 75    
Minimum Humidity 31    
Precipitation  
Precipitation 0.00 in - - ()
Sea Level Pressure  
Sea Level Pressure 29.94 in    
Wind  
Wind Speed 7 mph (SSW)    
Max Wind Speed 26 mph    
Max Gust Speed 33 mph    
Visibility 10 miles    
Events      
Averages and records for this station are not official NWS values.
T = Trace of Precipitation, MM = Missing Value Source: NWS Daily Summary

Daily Weather History Graph

Daily Weather History Graph

Search for Another Location

Airport or City:

Trip Planner

Search our weather history database for the weather conditions in past years. The results will help you decide how hot, cold, wet, or windy it might be!

Date:

Astronomy

Oct. 08, 2012 Rise Set
Actual Time 7:06 AM CDT 6:28 PM CDT
Civil Twilight 6:38 AM CDT 6:57 PM CDT
Nautical Twilight 6:05 AM CDT 7:30 PM CDT
Astronomical Twilight 5:32 AM CDT 8:03 PM CDT
Moon No Moon Rise 2:28 PM CDT (10/8)
Length of Visible Light 12h 18m
Length of Day
11h 21m
Last Quarter, 46% of the Moon is Illuminated
Oct 8
Last Quarter
Oct 15
New
Oct 21
First Quarter
Oct 29
Full
Nov 6
Last Quarter

Hourly Weather History & Observations

Time (CDT) Temp. Windchill Dew Point Humidity Pressure Visibility Wind Dir Wind Speed Gust Speed Precip Events Conditions
12:56 AM 27.0 °F 23.0 °F 19.9 °F 75% 30.07 in 10.0 mi East 3.5 mph - N/A   Clear
1:56 AM 27.0 °F - 18.0 °F 69% 30.06 in 10.0 mi Calm Calm - N/A   Clear
2:56 AM 37.0 °F - 19.0 °F 48% 30.04 in 10.0 mi Calm Calm - N/A   Clear
3:56 AM 35.1 °F - 19.9 °F 54% 30.02 in 10.0 mi Calm Calm - N/A   Clear
4:56 AM 35.1 °F - 21.0 °F 57% 30.02 in 10.0 mi Calm Calm - N/A   Clear
5:56 AM 33.1 °F - 21.0 °F 61% 30.02 in 10.0 mi Calm Calm - N/A   Clear
6:56 AM 37.0 °F 34.5 °F 23.0 °F 57% 30.02 in 10.0 mi South 3.5 mph - N/A   Clear
7:56 AM 37.9 °F 34.4 °F 24.1 °F 57% 30.02 in 10.0 mi Variable 4.6 mph - N/A   Clear
8:56 AM 43.0 °F 37.7 °F 27.0 °F 53% 30.01 in 10.0 mi SSW 9.2 mph - N/A   Clear
9:56 AM 48.9 °F - 30.0 °F 48% 29.99 in 10.0 mi SSW 8.1 mph 18.4 mph N/A   Clear
10:56 AM 53.1 °F - 32.0 °F 45% 29.97 in 10.0 mi SSW 15.0 mph 23.0 mph N/A   Partly Cloudy
11:56 AM 55.9 °F - 32.0 °F 40% 29.95 in 10.0 mi SSW 17.3 mph 26.5 mph N/A   Mostly Cloudy
12:56 PM 59.0 °F - 33.1 °F 38% 29.92 in 10.0 mi South 20.7 mph 27.6 mph N/A   Clear
1:56 PM 60.1 °F - 32.0 °F 35% 29.88 in 10.0 mi SSW 20.7 mph 32.2 mph N/A   Partly Cloudy
3:56 PM 63.0 °F - 32.0 °F 31% 29.84 in 10.0 mi SSW 16.1 mph 33.4 mph N/A   Mostly Cloudy
4:56 PM 62.1 °F - 32.0 °F 32% 29.83 in 10.0 mi South 26.5 mph 33.4 mph N/A   Mostly Cloudy
5:56 PM 59.0 °F - 32.0 °F 36% 29.83 in 10.0 mi SSW 15.0 mph 24.2 mph N/A   Clear
6:56 PM 57.9 °F - 32.0 °F 37% 29.84 in 10.0 mi South 16.1 mph 26.5 mph N/A   Clear
9:56 PM 55.9 °F - 30.0 °F 37% 29.84 in 10.0 mi SSW 21.9 mph 26.5 mph N/A   Clear
10:56 PM 55.0 °F - 30.9 °F 40% 29.84 in 10.0 mi SSW 17.3 mph 24.2 mph N/A   Clear
11:56 PM 55.0 °F - 32.0 °F 42% 29.83 in 10.0 mi SSW 10.4 mph 23.0 mph N/A   Clear